Flag for U.S.A. Weather past 2 weeks in Visalia, California, U.S.A.

Now
79 °F

Sunny.


Feels Like: 80 °F
Forecast: 66 / 92 °F
Wind: 6 mph from West

Location: Visalia Municipal

Current Time: Jul 7, 2015 at 11:10:45 AM

Latest Report: Jul 7, 2015 at 10:35 AM


Visibility: 10 mi

Pressure: 29.96 "Hg

Humidity: 48%

Dew point: 57 °F

Location of VisaliaLocation

Historic Weather in Visalia — Graph

°F

Visalia temperature yesterday

Maximum temperature yesterday: 93 °F (at 4:15 PM)
Minimum temperature yesterday: 66 °F (at 5:35 AM)
Average temperature yesterday: 81 °F

Past Weeks' High & Low Weather Summary

 TemperatureHumidityPressure
High106 °F (Jun 26, 5:15 PM)79% (Jul 2, 2:55 AM)30.00 "Hg (Jul 2, 2:55 AM)
Low57 °F (Jun 23, 5:55 AM)13% (Jun 26, 5:55 PM)29.68 "Hg (Jul 4, 6:35 PM)
Average83 °F45%29.85 "Hg
* Reported Jun 22 10:15 AM — Jul 7 10:15 AM, Visalia, Weather by CustomWeather, © 2015

Note: Actual official high and low records may vary slightly from our data, if they occured in-between our weather recording intervals... More about our weather records

Advertising

Visalia weather history for previous 24 hours

 ConditionsComfort  
Time TempWeatherWind HumidityBarometerVisibility
10:15 AM
Tue, Jul 7
79 °FSunny.5 mph48%29.97 "Hg10 mi
9:35 AM79 °FSunny.8 mph45%29.97 "Hg10 mi
9:15 AM79 °FSunny.10 mph45%29.98 "Hg10 mi
8:55 AM75 °FSunny.3 mph50%29.98 "Hg10 mi
8:35 AM73 °FSunny.No wind53%29.98 "Hg10 mi
8:15 AM72 °FSunny.5 mph57%29.98 "Hg10 mi
7:55 AM72 °FSunny.5 mph57%29.98 "Hg10 mi
7:35 AM70 °FSunny.5 mph60%29.97 "Hg10 mi
7:15 AM70 °FSunny.8 mph57%29.97 "Hg10 mi
6:55 AM66 °FSunny.5 mph64%29.96 "Hg10 mi
6:35 AM66 °FClear.5 mph64%29.96 "Hg10 mi
6:15 AM66 °FClear.5 mph64%29.96 "Hg10 mi
5:55 AM66 °FClear.3 mph64%29.94 "Hg10 mi
5:35 AM66 °FClear.No wind64%29.93 "Hg10 mi
5:15 AM66 °FClear.3 mph64%29.93 "Hg10 mi
4:55 AM66 °FClear.5 mph64%29.93 "Hg10 mi
4:35 AM68 °FClear.5 mph60%29.93 "Hg10 mi
4:15 AM68 °FClear.6 mph60%29.93 "Hg10 mi
3:55 AM70 °FClear.7 mph57%29.93 "Hg10 mi
3:35 AM72 °FClear.6 mph53%29.93 "Hg10 mi
3:15 AM72 °FClear.6 mph53%29.93 "Hg10 mi
2:55 AM72 °FClear.9 mph53%29.93 "Hg10 mi
2:35 AM72 °FClear.12 mph53%29.93 "Hg10 mi
2:15 AM72 °FClear.9 mph53%29.93 "Hg10 mi
1:55 AM73 °FClear.9 mph50%29.93 "Hg10 mi
1:35 AM73 °FClear.10 mph50%29.93 "Hg10 mi
1:15 AM73 °FClear.10 mph53%29.92 "Hg10 mi
12:55 AM75 °FClear.10 mph50%29.92 "Hg10 mi
12:35 AM75 °FClear.12 mph50%29.92 "Hg10 mi
12:15 AM75 °FClear.9 mph50%29.92 "Hg10 mi
11:55 PM
Mon, Jul 6
77 °FClear.9 mph47%29.92 "Hg10 mi
11:35 PM79 °FClear.12 mph45%29.92 "Hg10 mi
11:15 PM81 °FClear.12 mph42%29.91 "Hg10 mi
10:55 PM81 °FClear.12 mph42%29.91 "Hg10 mi
10:35 PM81 °FClear.13 mph42%29.91 "Hg10 mi
10:15 PM81 °FClear.10 mph42%29.90 "Hg10 mi
9:55 PM81 °FClear.12 mph42%29.89 "Hg10 mi
9:35 PM81 °FClear.8 mph45%29.88 "Hg10 mi
9:15 PM81 °FSunny.8 mph45%29.88 "Hg10 mi
8:55 PM82 °FSunny.12 mph45%29.88 "Hg10 mi
8:15 PM86 °FSunny.12 mph43%29.88 "Hg10 mi
7:55 PM88 °FSunny.10 mph40%29.87 "Hg10 mi
7:35 PM88 °FSunny.12 mph40%29.86 "Hg10 mi
7:15 PM90 °FSunny.10 mph38%29.86 "Hg10 mi
6:55 PM90 °FSunny.10 mph38%29.86 "Hg10 mi
6:35 PM91 °FSunny.14 mph36%29.86 "Hg10 mi
6:15 PM91 °FSunny.14 mph36%29.86 "Hg10 mi
5:55 PM91 °FSunny.15 mph36%29.87 "Hg10 mi
5:35 PM91 °FSunny.15 mph36%29.86 "Hg10 mi
5:15 PM91 °FSunny.14 mph38%29.87 "Hg10 mi
4:55 PM91 °FSunny.17 mph38%29.87 "Hg10 mi
4:35 PM93 °FSunny.13 mph36%29.87 "Hg10 mi
4:15 PM93 °FSunny.13 mph36%29.89 "Hg10 mi
3:55 PM91 °FSunny.13 mph38%29.90 "Hg10 mi
3:35 PM91 °FSunny.10 mph38%29.90 "Hg10 mi
2:55 PM91 °FSunny.12 mph38%29.92 "Hg10 mi
2:35 PM91 °FSunny.9 mph38%29.93 "Hg10 mi
2:15 PM90 °FSunny.12 mph41%29.94 "Hg10 mi
1:55 PM88 °FSunny.12 mph43%29.95 "Hg10 mi
1:35 PM88 °FSunny.10 mph43%29.96 "Hg10 mi
1:15 PM88 °FSunny.8 mph43%29.96 "Hg10 mi
12:55 PM86 °FSunny.8 mph46%29.97 "Hg10 mi
12:35 PM84 °FSunny.8 mph48%29.98 "Hg10 mi
12:15 PM84 °FSunny.6 mph45%29.98 "Hg10 mi
11:55 AM84 °FSunny.9 mph45%29.98 "Hg10 mi
11:35 AM82 °FSunny.10 mph48%29.99 "Hg10 mi
11:15 AM82 °FSunny.9 mph48%29.99 "Hg10 mi
Weather by CustomWeather, © 2015

See weather overviewHow to use our weather pages